User: anonymous   Login
Location: Unspecified
(0.0000°N, 0.0000°E)
Time: 15:31:47
(UTC+02:00)
Language:

Cosmos 1782 Rocket - Orbit

View from above orbital plane
View from above orbital plane
View from above satellite
View from above satellite

Ground track
Ground track

The orbit data is extracted from the following two-line orbital elements,

1 16987U 86074B   17228.18566304  .00000076  00000-0  63322-5 0  9993
2 16987  82.5140 254.2230 0019679  65.3210   0.0688 14.82969806667363
Epoch (UTC): 16 August 2017 04:27:21
Eccentricity: 0.0019679
inclination: 82.5140°
perigee height: 606 km
apogee height: 634 km
right ascension of ascending node: 254.2230°
argument of perigee: 65.3210°
revolutions per day: 14.82969806
mean anomaly at epoch: 0.0688°
orbit number at epoch: 66736

The dashed part of the orbit path shows where the satellite is in the earth's shadow,  

DLR